Total_Precipitation_Accumulation
0.05 0.11 0.13 0.15 0.12 0.13 0.19 0.22 0.15 0.15 0.12 0.09 0.07 0.08 0.08 0.06 0.08 0.21 0.28 0.27 0.26 0.35 0.60 0.85 1.03 1.07 0.93 0.77 0.69 0.67 0.66 0.54 0.44 0.30 0.23 0.21 0.17 0.15 0.09 0.04 0.01 0.00 0.00
0.12 0.17 0.16 0.18 0.14 0.13 0.20 0.23 0.17 0.19 0.12 0.08 0.05 0.03 0.03 0.03 0.03 0.07 0.11 0.17 0.30 0.43 0.51 0.67 0.89 0.98 0.91 0.75 0.63 0.61 0.65 0.64 0.57 0.40 0.30 0.26 0.24 0.20 0.15 0.08 0.03 0.01 0.00
0.15 0.18 0.19 0.18 0.19 0.18 0.26 0.25 0.20 0.19 0.12 0.08 0.06 0.04 0.03 0.04 0.04 0.07 0.12 0.20 0.25 0.33 0.39 0.45 0.65 0.81 0.81 0.71 0.59 0.61 0.66 0.71 0.75 0.58 0.40 0.34 0.32 0.29 0.23 0.16 0.07 0.03 0.01
0.12 0.21 0.18 0.16 0.19 0.21 0.25 0.28 0.22 0.19 0.19 0.12 0.07 0.04 0.03 0.04 0.05 0.07 0.14 0.21 0.21 0.14 0.25 0.38 0.44 0.52 0.63 0.71 0.70 0.78 0.86 0.87 0.91 0.77 0.55 0.43 0.39 0.37 0.32 0.24 0.14 0.06 0.02
0.12 0.24 0.23 0.21 0.15 0.24 0.21 0.17 0.19 0.22 0.24 0.19 0.06 0.07 0.04 0.05 0.06 0.07 0.09 0.13 0.13 0.13 0.15 0.24 0.42 0.43 0.55 0.75 0.87 0.95 1.08 1.16 1.12 0.97 0.73 0.58 0.53 0.47 0.40 0.32 0.23 0.12 0.05
0.19 0.29 0.28 0.29 0.22 0.29 0.30 0.24 0.26 0.27 0.24 0.19 0.05 0.06 0.04 0.03 0.04 0.07 0.08 0.09 0.12 0.12 0.11 0.14 0.18 0.23 0.32 0.49 0.68 0.84 1.04 1.32 1.39 1.17 1.03 0.94 0.83 0.68 0.53 0.40 0.28 0.18 0.10
0.27 0.38 0.32 0.41 0.34 0.35 0.43 0.35 0.37 0.33 0.29 0.26 0.19 0.12 0.03 0.01 0.03 0.06 0.09 0.10 0.09 0.13 0.15 0.23 0.30 0.33 0.31 0.37 0.40 0.52 0.80 1.20 1.45 1.39 1.41 1.39 1.28 1.05 0.73 0.52 0.32 0.20 0.13
0.30 0.34 0.45 0.46 0.41 0.42 0.52 0.48 0.40 0.30 0.28 0.33 0.32 0.24 0.14 0.11 0.11 0.11 0.15 0.14 0.14 0.13 0.15 0.22 0.33 0.41 0.34 0.32 0.39 0.42 0.68 1.03 1.28 1.50 1.77 1.91 1.83 1.39 0.93 0.62 0.38 0.25 0.18
0.35 0.37 0.41 0.49 0.45 0.45 0.52 0.58 0.46 0.39 0.41 0.44 0.50 0.42 0.32 0.28 0.16 0.07 0.07 0.11 0.17 0.18 0.15 0.13 0.13 0.11 0.11 0.22 0.46 0.47 0.53 0.66 0.83 1.28 1.78 2.19 2.10 1.48 0.99 0.70 0.50 0.31 0.21
0.39 0.40 0.41 0.47 0.48 0.47 0.48 0.48 0.51 0.57 0.51 0.45 0.53 0.58 0.54 0.43 0.30 0.15 0.07 0.07 0.12 0.16 0.19 0.15 0.10 0.04 0.04 0.15 0.33 0.36 0.30 0.23 0.27 0.59 1.13 1.49 1.53 1.19 0.90 0.72 0.52 0.34 0.23
0.38 0.38 0.40 0.47 0.52 0.54 0.51 0.53 0.58 0.57 0.50 0.44 0.45 0.47 0.52 0.52 0.44 0.34 0.22 0.15 0.09 0.07 0.10 0.09 0.07 0.05 0.05 0.14 0.22 0.21 0.12 0.08 0.11 0.21 0.41 0.67 0.84 0.81 0.71 0.65 0.52 0.35 0.23
0.36 0.35 0.36 0.44 0.50 0.50 0.48 0.50 0.53 0.53 0.48 0.47 0.44 0.44 0.45 0.44 0.50 0.50 0.36 0.28 0.19 0.05 0.04 0.05 0.05 0.07 0.11 0.14 0.10 0.08 0.06 0.05 0.05 0.08 0.15 0.26 0.38 0.46 0.50 0.53 0.47 0.33 0.21
0.48 0.44 0.39 0.37 0.35 0.33 0.38 0.43 0.45 0.49 0.49 0.51 0.47 0.45 0.46 0.42 0.51 0.52 0.40 0.32 0.29 0.13 0.11 0.07 0.06 0.06 0.07 0.10 0.07 0.07 0.05 0.03 0.03 0.04 0.05 0.09 0.16 0.24 0.31 0.36 0.35 0.29 0.21
0.47 0.39 0.31 0.27 0.25 0.28 0.32 0.41 0.51 0.50 0.55 0.56 0.52 0.47 0.42 0.40 0.46 0.49 0.48 0.47 0.40 0.36 0.37 0.26 0.08 0.05 0.06 0.08 0.08 0.05 0.02 0.02 0.02 0.02 0.03 0.05 0.08 0.14 0.18 0.23 0.26 0.21 0.16
0.26 0.22 0.21 0.21 0.21 0.23 0.25 0.30 0.42 0.41 0.43 0.48 0.58 0.51 0.40 0.39 0.43 0.46 0.54 0.60 0.53 0.48 0.56 0.51 0.24 0.09 0.07 0.07 0.06 0.03 0.02 0.01 0.01 0.01 0.01 0.03 0.04 0.06 0.10 0.12 0.14 0.11 0.08
0.10 0.10 0.11 0.11 0.11 0.12 0.14 0.18 0.26 0.36 0.34 0.38 0.50 0.45 0.40 0.40 0.45 0.48 0.55 0.61 0.66 0.65 0.63 0.61 0.45 0.22 0.14 0.12 0.07 0.04 0.03 0.01 0.00 0.00 0.00 0.01 0.02 0.03 0.04 0.05 0.06 0.05 0.03
0.02 0.02 0.03 0.04 0.05 0.05 0.05 0.06 0.11 0.21 0.25 0.25 0.33 0.33 0.35 0.40 0.44 0.47 0.50 0.53 0.67 0.80 0.77 0.83 0.73 0.54 0.36 0.23 0.14 0.08 0.04 0.01 0.00 0.00 0.00 0.00 0.01 0.01 0.01 0.02 0.02 0.01 0.01
0.00 0.01 0.01 0.02 0.02 0.02 0.02 0.02 0.03 0.06 0.13 0.19 0.28 0.36 0.42 0.49 0.50 0.45 0.47 0.53 0.68 0.85 0.93 1.08 1.17 0.91 0.62 0.37 0.27 0.15 0.07 0.03 0.01 0.01 0.01 0.00 0.00 0.00 0.00 0.00 0.00 0.00 0.00
0.00 0.00 0.00 0.00 0.00 0.00 0.01 0.01 0.02 0.03 0.08 0.13 0.24 0.36 0.40 0.41 0.44 0.44 0.49 0.54 0.61 0.72 0.82 0.96 1.14 0.97 0.76 0.51 0.48 0.34 0.18 0.14 0.07 0.06 0.03 0.01 0.00 0.00 0.00 0.00 0.00 0.00 0.00
0.00 0.00 0.00 0.00 0.00 0.00 0.01 0.02 0.02 0.04 0.06 0.10 0.16 0.23 0.27 0.28 0.33 0.36 0.39 0.47 0.53 0.56 0.61 0.70 0.85 0.93 0.95 0.86 0.77 0.62 0.48 0.35 0.23 0.12 0.11 0.05 0.03 0.02 0.01 0.01 0.00 0.01 0.00
0.00 0.00 0.00 0.00 0.00 0.00 0.00 0.01 0.02 0.03 0.05 0.07 0.09 0.11 0.10 0.12 0.15 0.19 0.24 0.33 0.41 0.48 0.54 0.62 0.76 0.90 0.99 1.00 0.89 0.84 0.69 0.58 0.41 0.32 0.36 0.24 0.19 0.15 0.09 0.04 0.03 0.03 0.02
0.01 0.00 0.00 0.00 0.00 0.00 0.00 0.01 0.01 0.01 0.02 0.03 0.05 0.05 0.04 0.04 0.05 0.08 0.10 0.13 0.19 0.29 0.44 0.60 0.74 0.90 0.95 0.92 1.01 0.95 0.85 0.77 0.64 0.51 0.54 0.55 0.52 0.46 0.33 0.19 0.12 0.07 0.05
0.03 0.02 0.01 0.01 0.01 0.00 0.00 0.00 0.00 0.00 0.00 0.00 0.01 0.02 0.01 0.00 0.01 0.03 0.06 0.11 0.11 0.11 0.16 0.38 0.54 0.61 0.62 0.59 0.77 0.95 0.87 0.79 0.75 0.56 0.55 0.64 0.68 0.66 0.48 0.37 0.25 0.13 0.09
0.04 0.04 0.03 0.03 0.02 0.00 0.00 0.00 0.00 0.00 0.00 0.00 0.00 0.00 0.00 0.00 0.00 0.01 0.03 0.08 0.05 0.03 0.06 0.14 0.18 0.19 0.24 0.33 0.45 0.66 0.79 0.71 0.65 0.56 0.53 0.64 0.67 0.69 0.60 0.44 0.29 0.17 0.11
0.07 0.04 0.04 0.06 0.05 0.01 0.00 0.00 0.00 0.00 0.00 0.00 0.00 0.00 0.00 0.00 0.00 0.00 0.04 0.07 0.03 0.01 0.01 0.02 0.03 0.06 0.10 0.13 0.19 0.30 0.44 0.61 0.74 0.66 0.51 0.62 0.67 0.72 0.80 0.64 0.41 0.23 0.14
0.10 0.06 0.06 0.05 0.06 0.03 0.00 0.00 0.00 0.00 0.00 0.00 0.00 0.00 0.00 0.00 0.00 0.00 0.02 0.04 0.03 0.02 0.01 0.01 0.01 0.01 0.02 0.03 0.06 0.10 0.18 0.32 0.50 0.53 0.38 0.40 0.54 0.75 0.88 0.73 0.48 0.30 0.20